Flag for Germany Weather past 2 weeks in Hagen, North Rhine-Westphalia, Germany

Now
52 °F

Partly sunny.


Feels Like: 49 °F
Forecast: 48 / 58 °F
Wind: 7 mph from South

Location: Dortmund / Wickede

Current Time: Oct 24, 2014 at 10:13:47 AM

Latest Report: Oct 24, 2014 at 9:50 AM


Visibility: N/A

Pressure: 30.15 "Hg

Humidity: 72%

Dew point: 43 °F

Location of HagenLocation

Historic Weather in Hagen — Graph

°F

Hagen temperature yesterday

Maximum temperature yesterday: 55 °F (at 2:20 PM)
Minimum temperature yesterday: 46 °F (at 5:20 AM)
Average temperature yesterday: 51 °F

Past Weeks' High & Low Weather Summary

 TemperatureHumidityPressure
High73 °F (Oct 19, 2:20 PM)94% (Oct 11, 7:50 AM)30.21 "Hg (Oct 11, 7:50 AM)
Low45 °F (Oct 22, 5:20 AM)49% (Oct 10, 2:50 PM)29.47 "Hg (Oct 21, 4:20 PM)
Average57 °F75%29.89 "Hg
* Reported Oct 9 8:20 AM — Oct 24 8:50 AM, Hagen, Weather by CustomWeather, © 2014

Note: Actual official high and low records may vary slightly from our data, if they occured in-between our weather recording intervals... More about our weather records

Advertising

Hagen weather history for previous 24 hours

 ConditionsComfort  
Time TempWeatherWind HumidityBarometerVisibility
8:50 AM
Oct 24
52 °FPassing clouds.7 mph72%30.15 "HgN/A
8:20 AM52 °FPassing clouds.8 mph72%30.15 "HgN/A
7:50 AM52 °FPassing clouds.6 mph77%30.15 "HgN/A
7:20 AM52 °FPassing clouds.8 mph77%30.15 "HgN/A
6:50 AM52 °FPassing clouds.8 mph77%30.15 "HgN/A
6:20 AM52 °FClear.7 mph77%30.15 "Hg10 mi
5:50 AM52 °FPassing clouds.9 mph77%30.15 "HgN/A
5:20 AM52 °FPassing clouds.8 mph77%30.15 "HgN/A
10:50 PM
Oct 23
52 °FPassing clouds.10 mph82%30.18 "HgN/A
10:20 PM52 °FPassing clouds.8 mph82%30.21 "HgN/A
9:50 PM52 °FPassing clouds.7 mph82%30.18 "HgN/A
9:20 PM52 °FPassing clouds.7 mph82%30.18 "HgN/A
8:50 PM52 °FPassing clouds.9 mph82%30.18 "HgN/A
8:20 PM52 °FPassing clouds.8 mph77%30.18 "HgN/A
7:50 PM52 °FPassing clouds.7 mph82%30.18 "HgN/A
7:20 PM52 °FPassing clouds.6 mph77%30.18 "HgN/A
6:50 PM52 °FPartly sunny.7 mph77%30.18 "HgN/A
6:20 PM54 °FSunny.7 mph72%30.18 "Hg10 mi
5:50 PM54 °FScattered clouds.8 mph72%30.18 "HgN/A
5:20 PM54 °FScattered clouds.8 mph72%30.18 "HgN/A
4:50 PM54 °FPartly sunny.10 mph72%30.18 "HgN/A
4:20 PM54 °FPartly sunny.10 mph72%30.21 "HgN/A
3:50 PM54 °FPassing clouds.9 mph72%30.21 "HgN/A
3:20 PM54 °FPartly sunny.9 mph72%30.21 "HgN/A
2:50 PM54 °FPartly sunny.10 mph72%30.21 "HgN/A
2:20 PM55 °FMostly cloudy.8 mph72%30.21 "HgN/A
1:50 PM54 °FPartly sunny.8 mph72%30.21 "HgN/A
1:20 PM54 °FBroken clouds.8 mph77%30.21 "HgN/A
12:50 PM54 °FScattered clouds.9 mph77%30.21 "HgN/A
12:20 PM54 °FPartly sunny.8 mph77%30.21 "HgN/A
11:50 AM52 °FPartly sunny.7 mph82%30.21 "HgN/A
11:20 AM50 °FPartly sunny.7 mph82%30.21 "HgN/A
10:50 AM50 °FBroken clouds.7 mph82%30.21 "HgN/A
10:20 AM50 °FPartly sunny.8 mph82%30.21 "Hg5 mi
Weather by CustomWeather, © 2014

See weather overviewHow to use our weather pages